Location: Aubrey
(33.1990°N, 85.1361°W)
Time: 11:52:21
(UTC+00:00)

X-37B - Visible Passes

Search period start: 18 September 2021 00:00
Search period end: 28 September 2021 00:00
Orbit: 381 x 393 km, 45.0° (Epoch: 29 August)

Date Brightness Start Highest point End Pass type
(mag) Time Alt. Az. Time Alt. Az. Time Alt. Az.
18 Sep 3.0 10:08:50 11° S 10:10:52 19° SE 10:13:11 10° E visible
19 Sep 0.5 10:45:56 11° WSW 10:48:55 87° NNW 10:52:04 10° NE visible
20 Sep 1.5 09:50:37 41° SE 09:50:37 41° SE 09:53:34 10° ENE visible
21 Sep 1.2 10:27:29 26° W 10:28:47 41° NNW 10:31:49 10° NE visible
22 Sep 2.7 09:31:58 26° NE 09:31:58 26° NE 09:33:32 10° NE visible
23 Sep 2.1 10:08:40 24° NNW 10:08:46 24° NNW 10:11:24 10° NNE visible
24 Sep 4.0 09:13:02 12° NE 09:13:02 12° NE 09:13:16 10° NE visible
24 Sep 3.1 10:46:07 10° NW 10:47:30 12° NNW 10:48:53 10° NNE visible
25 Sep 3.1 09:49:38 15° N 09:49:38 15° N 09:50:54 10° NNE visible
26 Sep 3.3 10:27:12 10° NNW 10:27:41 10° N 10:28:10 10° N visible
27 Sep 3.4 11:05:54 10° N 11:06:38 11° N 11:07:22 10° NNE visible
